Temp
0 1 1 1 2 2 2 3 3 4 5 6 5 5 5 5 5 5 6 7 7 7 7 6 6 7 8 7 7 7 6 6 6 5 5 5 5 5 4 4 4 3 3 2
-2 -1 -0 0 1 1 2 3 3 3 3 4 4 4 5 5 5 5 5 6 6 7 7 6 6 7 7 7 7 7 7 6 6 6 5 5 5 5 4 4 4 3 3 2
-2 -1 -0 0 0 1 1 2 2 3 3 3 4 4 4 4 4 5 5 5 6 6 6 6 6 6 7 7 7 7 7 7 6 6 6 5 4 4 4 4 3 3 4 3
-3 -2 -1 0 2 2 2 2 2 2 3 3 3 3 3 3 3 4 4 5 5 6 6 6 6 5 5 7 7 7 7 7 6 6 6 5 5 4 4 5 5 5 4 3
-4 -2 -1 -0 0 1 0 1 -0 0 1 1 1 1 1 2 3 3 3 4 4 5 5 5 5 5 5 5 6 7 7 7 6 6 6 5 5 6 5 5 5 5 4 4
-4 -3 -1 1 -1 -1 -1 0 -2 -1 -1 -0 0 0 0 1 1 2 2 3 3 4 4 4 5 5 5 5 5 6 6 6 6 6 6 6 6 5 5 5 5 4 4 4
-5 -4 -2 -2 -2 -2 -1 -2 -2 -2 -2 -1 -2 -2 -1 1 2 2 2 2 2 3 3 3 4 4 4 4 4 5 6 6 6 6 5 6 6 5 5 5 4 4 3 3
-5 -4 -3 -1 -2 -2 -2 -2 -2 -3 -3 -3 -3 -3 -2 -0 1 1 2 2 2 2 3 3 3 4 4 5 5 5 5 6 6 6 6 5 5 5 5 5 4 3 3 2
-4 -3 -2 -2 -2 -2 -2 -2 -2 -3 -3 -3 -3 -3 -3 -2 -1 -1 -1 0 2 1 2 2 3 3 4 4 4 5 5 5 5 5 6 5 5 4 4 3 3 1 1 1
-4 -3 -3 -3 -3 -2 -2 -2 -3 -3 -3 -3 -3 -3 -3 -2 -2 -2 -2 -2 -1 1 1 2 3 3 3 4 4 4 5 4 4 3 4 3 2 2 1 1 3 0 -0 -1
-4 -2 -2 -2 -2 -2 -3 -3 -3 -4 -4 -4 -3 -3 -2 -2 -2 -3 -3 -2 -1 0 1 1 2 2 3 3 3 4 4 4 4 3 2 2 1 0 0 0 0 -1 -3 -3
-3 -4 -3 -4 -4 -4 -3 -4 -4 -3 -4 -3 -3 -3 -2 -2 -3 -3 -3 -3 -2 0 1 1 1 2 2 3 2 2 2 2 1 0 0 0 1 1 -0 -1 -3 -3 -4 -5
-4 -4 -4 -4 -4 -4 -4 -4 -4 -4 -3 -4 -3 -3 -2 -3 -3 -3 -3 -3 -3 -2 -2 -1 0 1 2 1 -1 -0 -0 0 0 0 -0 -1 -2 -2 -4 -3 -4 -5 -5 -5
-5 -5 -4 -4 -4 -4 -5 -5 -4 -3 -3 -3 -4 -3 -3 -3 -3 -4 -3 -3 -3 -4 -3 -2 -1 -1 -1 -1 -1 -2 -2 -2 -4 -4 -4 -4 -4 -5 -5 -5 -5 -6 -6 -7
-5 -4 -4 -4 -5 -5 -5 -5 -4 -4 -3 -3 -3 -3 -3 -3 -3 -3 -3 -3 -3 -4 -4 -4 -5 -4 -4 -4 -4 -5 -4 -4 -5 -5 -5 -5 -5 -5 -5 -6 -6 -7 -7 -8
-5 -5 -5 -5 -5 -4 -4 -5 -5 -4 -4 -3 -3 -3 -3 -3 -3 -3 -2 -3 -4 -4 -4 -4 -4 -4 -4 -5 -4 -5 -5 -5 -5 -6 -5 -6 -6 -6 -7 -7 -8 -8 -8 -9
-6 -5 -5 -5 -5 -5 -4 -4 -4 -4 -4 -3 -3 -3 -3 -3 -3 -4 -3 -3 -4 -4 -4 -5 -5 -5 -5 -5 -6 -6 -6 -6 -6 -6 -6 -7 -7 -7 -8 -8 -8 -9 -9 -9
-5 -5 -5 -5 -5 -5 -4 -4 -4 -4 -4 -3 -3 -3 -3 -3 -3 -4 -4 -4 -4 -5 -5 -5 -5 -5 -5 -6 -6 -6 -6 -7 -7 -7 -8 -8 -9 -9 -9 -9 -9 -10 -10 -10
-6 -5 -5 -5 -5 -5 -5 -4 -4 -4 -4 -4 -4 -3 -3 -4 -4 -4 -4 -4 -4 -5 -6 -6 -6 -6 -6 -7 -7 -7 -7 -8 -8 -9 -9 -9 -9 -9 -9 -10 -10 -10 -11 -11
-6 -5 -5 -5 -5 -5 -5 -5 -4 -4 -4 -4 -4 -4 -5 -5 -6 -6 -6 -5 -5 -6 -7 -7 -7 -7 -7 -8 -8 -8 -9 -9 -9 -10 -10 -10 -10 -10 -11 -11 -12 -12 -12 -13
-6 -6 -6 -5 -5 -5 -5 -5 -5 -6 -5 -5 -5 -6 -7 -7 -6 -6 -6 -7 -7 -7 -8 -8 -8 -8 -9 -9 -9 -10 -10 -10 -10 -10 -10 -11 -11 -11 -12 -12 -13 -13 -13 -14
-6 -6 -6 -6 -5 -5 -6 -6 -7 -8 -8 -8 -8 -8 -8 -7 -7 -8 -8 -9 -10 -10 -10 -10 -10 -10 -10 -10 -11 -11 -11 -11 -11 -11 -11 -12 -12 -13 -13 -13 -14 -14 -14 -15
-7 -7 -7 -7 -6 -7 -7 -7 -8 -8 -8 -8 -8 -9 -8 -8 -9 -10 -11 -11 -11 -11 -11 -10 -11 -11 -11 -13 -13 -12 -12 -12 -12 -12 -13 -13 -13 -13 -14 -14 -14 -15 -15 -15
-8 -9 -9 -9 -9 -9 -8 -8 -8 -9 -9 -9 -9 -10 -11 -12 -12 -12 -12 -12 -12 -12 -12 -11 -11 -12 -13 -14 -13 -13 -12 -12 -13 -13 -13 -14 -14 -14 -15 -15 -15 -16 -16 -17
-11 -11 -11 -11 -10 -10 -10 -10 -10 -11 -11 -12 -12 -13 -13 -14 -14 -13 -13 -13 -13 -12 -12 -12 -13 -15 -15 -14 -13 -13 -13 -13 -14 -14 -14 -15 -16 -16 -16 -16 -16 -17 -17 -18
-12 -12 -12 -12 -12 -12 -12 -12 -13 -13 -13 -14 -14 -14 -14 -14 -14 -14 -14 -13 -13 -13 -13 -14 -15 -15 -14 -14 -14 -14 -15 -15 -15 -16 -16 -16 -16 -17 -17 -17 -17 -18 -18 -19
-13 -13 -13 -13 -13 -14 -14 -14 -14 -14 -15 -15 -15 -15 -14 -14 -14 -14 -14 -14 -14 -15 -16 -16 -16 -15 -15 -15 -15 -15 -16 -16 -16 -16 -17 -17 -17 -18 -18 -18 -18 -19 -19 -19
Height
2997 3001 3002 3002 3001 3001 3001 3002 3002 3002 3002 3004 3006 3007 3008 3008 3009 3011 3012 3015 3019 3020 3020 3021 3019 3019 3021 3023 3027 3029 3030 3032 3034 3037 3039 3041 3043 3045 3048 3049 3051 3053 3055 3057
2997 2997 2998 2998 2998 2999 2999 3000 3001 3002 3000 3001 3002 3003 3004 3006 3008 3009 3010 3011 3013 3016 3016 3015 3016 3015 3017 3019 3022 3025 3026 3028 3029 3031 3033 3035 3037 3039 3041 3043 3044 3047 3048 3050
2994 2995 2995 2992 2990 2992 2994 2996 2997 2996 2997 3000 3000 3000 3002 3001 3002 3004 3007 3008 3008 3009 3011 3012 3011 3011 3012 3015 3017 3019 3021 3023 3025 3026 3028 3030 3032 3034 3036 3037 3039 3039 3041 3043
2994 2993 2992 2988 2988 2989 2989 2990 2992 2992 2991 2994 2997 2994 2994 2996 2994 2993 2992 2994 2995 2999 3001 3006 3008 3007 3007 3008 3010 3013 3015 3017 3019 3021 3023 3024 3026 3027 3028 3030 3032 3033 3034 3035
2992 2991 2988 2984 2985 2986 2986 2988 2986 2985 2984 2983 2983 2984 2989 2991 2988 2988 2987 2982 2986 2989 2991 2994 2997 3000 3002 3001 3003 3005 3008 3010 3013 3015 3016 3018 3018 3020 3022 3024 3025 3027 3028 3028
2990 2990 2985 2980 2983 2984 2984 2985 2982 2982 2982 2981 2982 2982 2983 2983 2984 2983 2980 2976 2983 2983 2986 2988 2990 2993 2996 2997 2996 2999 2999 3002 3004 3008 3010 3012 3014 3015 3016 3016 3017 3018 3018 3019
2987 2985 2981 2979 2981 2981 2983 2986 2980 2979 2980 2980 2980 2980 2978 2979 2978 2976 2969 2972 2975 2976 2978 2979 2979 2984 2986 2987 2987 2990 2994 2996 2998 3000 3002 3005 3005 3007 3008 3008 3009 3009 3010 3010
2983 2983 2980 2977 2979 2981 2980 2979 2980 2981 2978 2977 2978 2976 2974 2973 2970 2968 2965 2964 2965 2966 2967 2968 2971 2975 2978 2981 2981 2983 2985 2987 2989 2990 2992 2995 2997 2997 2997 2998 2999 3000 3000 3001
2975 2974 2975 2975 2976 2976 2976 2977 2977 2975 2974 2973 2972 2971 2969 2967 2964 2959 2957 2955 2955 2956 2957 2958 2958 2962 2965 2967 2970 2973 2975 2976 2978 2979 2982 2983 2984 2987 2989 2992 2991 2995 2992 2991
2969 2971 2971 2972 2973 2974 2975 2975 2972 2971 2968 2968 2967 2966 2963 2960 2956 2954 2951 2948 2946 2946 2948 2948 2947 2949 2952 2955 2958 2961 2964 2966 2968 2970 2972 2973 2975 2976 2978 2978 2978 2982 2982 2980
2963 2968 2969 2971 2970 2968 2968 2969 2969 2965 2966 2964 2963 2959 2957 2954 2952 2948 2944 2939 2937 2937 2939 2940 2939 2940 2941 2944 2947 2950 2953 2956 2957 2960 2962 2964 2966 2970 2971 2970 2969 2970 2972 2972
2963 2962 2964 2966 2966 2966 2967 2966 2962 2963 2962 2958 2956 2952 2951 2950 2947 2943 2939 2933 2928 2928 2931 2933 2935 2935 2935 2936 2938 2941 2944 2947 2950 2953 2955 2958 2960 2960 2961 2960 2961 2962 2964 2966
2958 2962 2962 2963 2963 2961 2960 2959 2957 2957 2955 2953 2951 2948 2947 2946 2943 2939 2935 2931 2925 2921 2922 2925 2928 2930 2930 2932 2935 2938 2940 2942 2945 2948 2949 2948 2948 2949 2954 2953 2957 2959 2959 2960
2957 2955 2958 2956 2958 2959 2957 2953 2953 2952 2950 2949 2947 2945 2943 2943 2938 2937 2932 2930 2923 2918 2917 2919 2923 2925 2927 2929 2931 2934 2936 2938 2940 2941 2944 2946 2946 2950 2953 2954 2954 2955 2955 2956
2948 2952 2952 2954 2954 2953 2951 2949 2948 2946 2946 2945 2942 2942 2940 2939 2938 2935 2933 2929 2925 2921 2918 2918 2921 2923 2926 2930 2933 2935 2937 2940 2943 2944 2944 2947 2948 2949 2950 2951 2951 2950 2951 2951
2949 2949 2947 2946 2947 2947 2946 2945 2942 2941 2938 2942 2940 2938 2937 2935 2934 2933 2931 2931 2928 2925 2923 2923 2923 2924 2927 2930 2933 2934 2939 2941 2943 2944 2943 2946 2947 2947 2949 2949 2949 2949 2948 2948
2942 2943 2942 2940 2941 2941 2940 2938 2936 2935 2934 2935 2934 2933 2932 2930 2929 2929 2928 2929 2928 2926 2926 2927 2926 2928 2930 2932 2934 2936 2939 2942 2943 2941 2941 2943 2944 2944 2945 2945 2945 2944 2942 2941
2936 2935 2934 2933 2932 2934 2933 2932 2930 2929 2929 2929 2929 2927 2926 2925 2925 2923 2925 2924 2925 2924 2926 2927 2929 2929 2931 2932 2934 2935 2937 2939 2938 2938 2939 2940 2941 2942 2942 2941 2940 2939 2939 2937
2929 2928 2927 2926 2926 2926 2925 2925 2924 2922 2921 2921 2921 2921 2921 2921 2920 2919 2919 2920 2921 2922 2923 2924 2926 2928 2929 2931 2933 2933 2934 2934 2934 2935 2936 2936 2937 2938 2938 2937 2937 2935 2933 2930
2922 2922 2922 2921 2920 2919 2918 2918 2916 2915 2914 2913 2913 2913 2913 2913 2914 2915 2916 2916 2915 2917 2919 2920 2922 2924 2926 2928 2929 2930 2931 2931 2932 2933 2933 2934 2935 2934 2933 2932 2932 2930 2927 2924
2917 2916 2915 2914 2913 2913 2912 2910 2908 2907 2906 2906 2906 2906 2906 2908 2909 2910 2911 2912 2913 2913 2913 2916 2918 2920 2922 2924 2926 2928 2929 2930 2930 2931 2931 2931 2931 2930 2930 2928 2926 2924 2922 2919
2911 2911 2909 2908 2907 2905 2904 2902 2900 2900 2900 2899 2900 2900 2901 2903 2904 2905 2907 2910 2912 2914 2918 2918 2918 2919 2920 2922 2924 2926 2927 2927 2927 2927 2927 2927 2926 2926 2924 2923 2921 2918 2916 2913
2902 2901 2900 2898 2897 2896 2895 2894 2893 2894 2894 2895 2895 2895 2896 2897 2899 2902 2906 2908 2910 2912 2914 2916 2918 2919 2920 2921 2924 2925 2926 2925 2925 2924 2924 2924 2922 2922 2920 2918 2914 2911 2909 2906
2893 2891 2890 2889 2888 2887 2887 2887 2887 2887 2887 2888 2889 2890 2892 2894 2898 2901 2904 2907 2909 2912 2913 2914 2915 2916 2917 2919 2921 2921 2922 2922 2922 2922 2921 2920 2919 2917 2915 2910 2907 2906 2905 2902
2886 2885 2883 2882 2882 2882 2881 2881 2882 2882 2883 2885 2887 2889 2892 2895 2898 2901 2904 2906 2908 2910 2911 2912 2912 2914 2917 2918 2919 2920 2919 2919 2919 2919 2918 2916 2914 2910 2908 2904 2902 2899 2898 2897
2883 2881 2880 2880 2880 2879 2879 2880 2881 2883 2884 2887 2889 2891 2894 2897 2899 2902 2904 2906 2907 2908 2909 2911 2912 2915 2917 2918 2918 2918 2916 2916 2915 2913 2911 2910 2907 2904 2901 2898 2896 2895 2894 2892
2882 2881 2881 2881 2881 2882 2882 2883 2885 2887 2889 2891 2894 2896 2898 2900 2901 2903 2904 2905 2905 2906 2907 2910 2912 2913 2914 2914 2913 2913 2912 2911 2909 2907 2905 2902 2900 2897 2895 2893 2892 2891 2889 2886
Wind_Speed
20 16 14 14 13 12 12 12 12 15 18 17 11 11 11 9 8 9 6 6 6 11 18 25 29 24 19 23 24 23 24 23 22 22 22 21 22 22 21 22 22 23 23 23
18 19 20 21 21 21 21 20 21 23 28 24 22 19 16 19 21 22 18 12 13 14 14 22 24 24 20 20 22 21 22 20 20 20 22 23 25 24 24 25 25 26 26 27
15 13 15 19 22 21 22 23 24 29 27 21 20 17 20 20 18 14 17 19 15 14 22 15 23 24 24 22 23 22 22 20 18 18 20 22 24 25 26 27 27 30 30 30
7 9 8 12 5 5 6 10 11 14 20 26 22 20 18 13 17 20 22 22 22 24 11 17 20 20 23 22 27 28 26 26 24 22 19 21 23 25 27 25 25 26 29 32
5 9 13 19 10 7 1 4 2 3 1 10 15 17 16 18 24 27 27 29 24 30 28 27 23 22 25 30 30 33 34 31 31 28 25 25 27 27 26 27 29 30 31 33
9 7 4 7 7 1 3 5 4 3 6 11 15 12 17 23 22 31 34 37 29 27 33 31 31 26 23 31 30 29 27 33 32 35 32 31 32 32 32 32 33 34 35 36
22 8 12 11 8 8 3 1 4 5 9 13 13 14 20 24 27 27 41 39 33 34 35 38 36 34 32 32 36 34 33 32 33 37 38 41 39 37 39 39 39 39 38 38
18 11 13 9 4 1 2 8 8 10 10 14 15 19 24 26 29 31 33 35 41 39 41 46 44 42 39 35 34 32 34 37 43 44 42 41 46 47 47 46 43 41 41 39
16 14 9 8 5 6 9 10 13 12 13 15 19 20 23 23 24 29 28 32 38 36 33 33 39 39 38 37 36 35 33 37 42 48 50 50 51 51 47 42 44 40 37 37
16 16 8 7 11 8 11 12 12 12 20 24 25 24 21 27 23 21 23 24 32 30 28 26 31 34 35 37 39 40 38 39 44 47 50 48 47 45 41 41 47 45 36 33
15 10 11 7 10 9 6 8 11 18 24 25 21 26 21 24 23 25 23 25 19 27 24 24 24 29 33 37 37 38 38 40 40 41 41 41 40 36 35 36 38 35 25 25
7 7 6 6 7 9 9 10 19 25 21 22 20 21 25 24 15 21 24 31 22 21 30 30 26 22 22 26 28 28 28 31 31 32 33 35 35 38 44 41 27 25 23 20
5 4 6 8 8 8 12 11 18 18 21 18 20 22 25 15 23 15 22 28 26 20 24 26 27 27 21 19 17 19 24 27 30 32 35 32 29 25 18 19 18 16 14 16
6 9 6 10 15 14 13 20 25 20 16 19 20 18 20 26 27 35 25 25 30 17 15 24 21 22 23 25 30 30 31 27 20 17 14 10 8 7 8 9 11 13 17 19
15 12 17 18 13 11 8 19 23 22 20 22 24 22 20 21 23 22 27 28 21 21 10 13 16 19 18 12 7 11 14 13 7 5 5 2 4 8 12 14 15 16 17 16
18 20 22 25 24 22 22 26 28 28 29 21 23 23 22 21 21 20 18 22 20 16 8 2 8 13 15 13 11 12 11 6 2 2 5 8 10 11 12 12 12 12 14 15
26 25 26 27 23 25 27 30 29 29 29 27 24 21 21 21 18 21 16 20 18 12 8 8 13 15 12 7 10 12 11 8 7 8 9 10 10 10 10 11 13 14 16 17
28 30 30 28 29 29 29 27 27 28 28 26 24 23 22 21 20 20 21 18 15 13 10 7 11 13 11 11 12 13 12 11 9 8 8 9 9 9 10 12 14 15 16 18
28 26 23 22 23 23 23 24 26 28 29 27 24 22 23 21 20 23 20 19 16 14 14 12 13 13 12 13 13 11 10 8 7 7 8 9 10 11 12 13 14 15 17 18
22 22 22 22 23 23 22 25 28 28 28 27 25 24 22 21 18 18 20 20 21 20 19 18 18 17 15 14 11 9 7 6 7 8 9 10 11 11 12 12 14 15 16 17
25 25 23 23 23 25 29 32 31 30 27 25 22 22 20 17 16 18 21 21 25 26 24 22 21 18 14 11 9 8 7 7 8 8 9 10 11 12 13 13 15 16 17 18
21 22 24 25 27 30 32 30 27 22 20 20 20 19 17 17 17 20 22 20 19 18 17 17 17 16 13 10 7 6 6 6 7 8 9 10 11 13 14 15 15 16 17 18
30 30 29 29 30 30 28 25 22 20 19 19 18 18 16 14 15 15 16 17 17 17 16 15 13 10 8 5 4 4 6 8 8 9 10 12 13 14 15 15 16 17 18 19
28 28 26 25 24 22 21 20 19 19 18 16 15 13 10 9 11 14 15 14 14 14 14 14 12 7 4 1 4 6 8 9 9 11 12 13 14 15 15 16 16 17 18 18
19 18 17 16 16 15 14 13 12 11 11 10 10 11 13 13 13 12 12 12 11 11 11 8 5 3 3 5 7 8 9 10 11 12 13 14 14 14 15 16 17 18 18 19
13 11 10 9 8 6 4 5 6 9 11 12 14 14 14 13 12 12 11 12 12 13 9 7 4 2 6 7 8 9 10 11 12 13 13 14 14 15 16 17 17 18 18 19
5 3 1 3 6 8 11 13 13 13 13 12 11 11 11 9 8 9 10 10 8 6 3 0 5 7 8 9 10 11 12 13 14 14 15 15 16 17 17 18 18 19 19 20
Wind_Direction
273 274 277 274 268 268 260 249 261 261 267 264 279 273 280 287 291 287 295 266 275 262 240 229 248 257 256 245 242 254 258 257 255 252 251 245 242 242 242 241 238 236 239 241
269 273 271 269 260 255 252 253 254 257 263 269 280 283 294 302 291 296 286 270 261 267 257 260 245 253 255 244 235 244 253 251 253 251 251 252 250 248 250 250 251 251 253 249
268 268 265 267 259 252 255 252 253 256 259 258 266 276 282 277 282 294 305 296 266 271 255 252 261 256 243 243 241 242 241 245 249 254 253 250 248 248 249 252 252 253 257 255
262 289 239 243 228 259 248 249 263 285 259 243 260 254 254 259 264 254 269 263 250 246 221 231 239 253 260 251 249 244 240 241 244 247 249 245 243 242 243 248 254 258 256 255
232 245 265 285 286 248 272 91 207 294 235 216 241 247 261 251 246 256 264 242 226 229 227 221 221 224 247 256 261 248 244 242 244 247 246 237 234 242 244 249 253 257 260 259
212 239 241 116 123 338 255 213 358 261 277 276 272 276 264 250 258 256 260 259 249 232 237 237 229 221 227 244 252 253 241 241 246 249 252 253 252 250 249 251 253 254 256 257
231 248 250 249 291 291 234 169 328 334 289 278 292 287 276 274 265 269 262 263 260 255 250 245 242 237 230 238 246 253 252 247 240 253 252 255 250 254 256 255 254 256 255 256
224 243 254 299 235 231 270 330 308 315 290 302 301 306 302 286 283 273 270 267 259 262 264 259 260 256 256 254 256 264 264 259 251 254 252 246 250 249 247 252 250 252 254 255
202 227 219 223 236 263 330 316 316 299 312 293 290 301 311 305 293 286 279 266 255 262 259 263 258 258 257 260 262 264 270 261 255 249 248 247 247 245 245 250 258 259 246 243
216 225 235 251 282 322 290 296 286 309 292 299 301 306 303 313 294 305 285 285 262 257 258 267 261 255 255 258 259 260 261 262 251 249 248 246 243 238 239 241 249 249 237 248
250 266 250 246 247 225 253 300 303 283 293 300 301 307 299 315 315 313 313 297 281 254 253 259 265 256 249 249 250 250 250 251 248 246 243 243 237 233 242 241 236 235 243 247
222 239 249 279 308 332 324 300 272 287 305 302 304 307 300 305 304 321 333 339 307 261 252 255 260 261 254 250 250 249 248 246 247 243 239 232 230 239 232 230 239 241 242 246
265 284 304 317 312 288 299 292 284 304 313 313 314 307 320 294 305 330 342 344 337 282 255 255 257 263 263 256 240 235 228 230 225 216 208 208 213 220 232 230 230 235 251 268
309 294 286 266 281 296 290 278 286 297 306 317 329 324 317 307 313 324 326 338 345 335 273 240 255 259 253 241 211 203 204 198 188 186 192 204 203 218 236 250 258 267 274 279
269 278 272 276 276 251 290 295 304 303 302 310 320 324 307 304 311 326 326 331 343 356 320 259 228 210 182 165 169 184 179 145 63 67 53 341 277 262 261 265 270 279 285 291
263 270 273 273 275 273 289 308 303 302 305 315 310 308 308 305 312 306 316 319 312 336 322 177 179 176 168 167 179 176 169 158 111 318 298 269 265 270 277 283 287 289 288 289
279 276 282 279 276 280 283 296 296 295 298 310 307 299 301 301 296 301 306 293 297 283 267 224 195 198 192 221 176 180 198 221 254 281 279 278 283 287 291 291 290 293 299 302
278 284 284 281 279 282 286 289 290 291 293 297 296 295 297 295 294 287 280 266 267 259 237 238 224 222 242 212 199 204 221 244 264 272 273 275 280 284 286 292 298 301 303 308
283 283 284 284 284 287 288 289 289 290 292 292 288 284 285 284 283 284 289 260 246 246 234 232 232 220 219 218 218 229 246 265 278 282 284 287 288 291 294 298 300 302 305 308
281 283 283 283 284 285 289 296 297 292 287 285 283 281 282 282 283 277 278 265 241 224 220 214 216 216 215 221 232 248 256 263 273 277 282 284 286 292 296 298 301 305 309 311
282 283 284 284 281 282 290 293 291 290 286 282 274 272 280 278 271 269 262 248 236 221 209 211 210 210 214 224 232 238 245 253 259 271 282 291 296 297 301 304 307 308 311 313
284 283 285 287 286 286 289 288 286 282 277 275 271 258 257 259 254 249 242 228 223 222 222 212 207 208 206 212 219 232 252 268 282 292 297 300 305 307 306 305 308 311 311 317
290 289 288 287 286 286 284 279 278 275 267 265 264 258 255 250 242 230 225 219 211 212 211 217 223 221 215 177 209 251 274 284 290 297 300 302 303 301 302 304 309 317 321 322
290 288 287 285 282 279 275 272 272 266 255 245 239 227 204 193 202 201 194 199 205 208 212 215 215 197 160 194 253 266 278 287 295 298 298 299 300 303 305 310 313 315 315 317
295 292 288 285 277 271 266 265 261 247 226 202 186 175 166 170 171 189 189 195 204 217 220 208 164 131 225 260 274 280 288 293 292 290 291 293 299 306 307 310 314 318 319 318
303 293 284 274 262 241 208 179 160 157 146 146 150 155 160 169 172 184 197 205 210 211 197 170 159 240 264 270 276 284 291 292 293 293 296 299 304 309 313 316 315 315 315 317
308 289 207 147 143 135 132 129 130 134 135 141 152 161 169 181 195 205 207 197 176 145 113 149 251 259 270 281 290 297 299 300 302 304 306 310 313 315 314 313 312 313 315 317